Regional Weather Roundup
Issued by NWS

Home | Current Version | Previous Version | Graphics & Text | Print | Product List | Glossary On
Versions: 1 2 3 4 5 6 7 8 9 10 11 12 13 14 15 16 17 18 19 20 21 22 23 24 25 26 27 28 29 30 31 32 33 34 35 36 37 38 39 40 41 42 43 44 45 46 47 48 49 50
824
ASUS45 KBOU 231010
RWRCO

WEATHER ROUNDUP FOR COLORADO
NATIONAL WEATHER SERVICE DENVER/BOULDER CO
400 AM MDT MON APR 23 2018

NOTE: "FAIR" INDICATES FEW OR NO CLOUDS BELOW 12000 FEET WITH NO
SIGNIFICANT WEATHER AND/OR OBSTRUCTIONS TO VISIBILITY.

COZ001>005-013-030-031-231100-
...NORTHWEST COLORADO...

CITY           SKY/WX    TMP DP  RH WIND       PRES   REMARKS
CRAIG          FAIR      34  30  85 CALM      30.08S
HAYDEN         FAIR      41  30  65 E10       30.10S
MEEKER         FAIR      35  30  82 NE6       30.10R WCI  30
RANGELY        CLOUDY    47  35  63 E10       30.02S
RABBIT EARS PA FAIR      34  27  75 CALM      30.25S
STEAMBOAT SPGS FAIR      36  29  74 CALM      30.12R
WALDEN         FAIR      30  23  74 SE3       30.18R
$$

COZ006>008-011-231100-
...WEST CENTRAL VALLEYS...

CITY           SKY/WX    TMP DP  RH WIND       PRES   REMARKS
GRAND JUNCTION FAIR      48  32  53 SE9       30.03R
MONTROSE       FAIR      43  30  60 SE6       30.10R
EAGLE          FAIR      36  31  82 CALM      30.17R
RIFLE          FAIR      43  36  76 SW3       30.08R
DELTA          FAIR      47  32  55 CALM      30.08R
NUCLA          FAIR      45  28  53 SE10      30.13R
$$

COZ017>023-064>068-231100-
...SOUTHWEST COLORADO...

CITY           SKY/WX    TMP DP  RH WIND       PRES   REMARKS
DURANGO        FAIR      35  22  58 CALM      30.15R
CORTEZ         FAIR      32  21  64 E5        30.11S WCI  27
PAGOSA SPRINGS FAIR      33  18  54 CALM      30.21R
TELLURIDE      FAIR      38  27  65 SE7       30.27R
WOLF CREEK PAS FAIR      32  12  43 SW13G18   30.40S WCI  22
$$

COZ009-010-012-014-032>034-037-058>063-231100-
...CENTRAL COLORADO...

CITY           SKY/WX    TMP DP  RH WIND       PRES   REMARKS
ASPEN          FAIR      40  28  62 S7        30.16R
BUENA VISTA    FAIR      35  32  88 W5        30.23S WCI  31
COPPER MTN     NOT AVBL
BERTHOUD PASS  FAIR      27  16  63 W14       30.34S WCI  15
COTTONWOOD PAS MOCLDY    41  32  70 W6        30.27F
GUNNISON       FAIR      35  28  75 E3        30.22R
GRANBY         FAIR      29  26  88 CALM      30.20S
KREMMLING      FAIR      36  32  87 CALM      30.19R
LEADVILLE      CLOUDY    31  31 100 CALM      30.26S
MONARCH PASS   FAIR      32  23  69 SW13      30.44S WCI  22
SALIDA         FAIR      39  34  82 W3        30.29S
SUNLIGHT       FAIR      32  23  69 SW8       30.31S WCI  25
WILKERSON PASS FAIR      32  28  86 W6        30.33S WCI  26
$$

COZ069>075-231100-
...SAN LUIS VALLEY/SANGRE DE CRISTO MOUNTAINS...

CITY           SKY/WX    TMP DP  RH WIND       PRES   REMARKS
ALAMOSA        FAIR      31  23  72 S7        30.18S WCI  24
DEL NORTE      FAIR      37  24  57 W13       30.21R
LA VETA PASS   FAIR      36  25  64 SW16G23   30.38S
SAGUACHE       NOT AVBL
$$

COZ035-036-038>040-231100-
...NORTHERN COLORADO FRONT RANGE...

CITY           SKY/WX    TMP DP  RH WIND       PRES   REMARKS
DENVER INTL AP MOCLDY    42  35  76 VRB7      30.08F
AURORA         PTCLDY    44  35  70 CALM      30.09F
FRONT RANGE AP FAIR      44  38  78 SE6       30.09S
ERIE MUNI ARPT FAIR      37  34  91 CALM      30.15S
BOULDER MUN AP FAIR      43  37  81 W3        30.09F
CENTENNIAL     FAIR      44  37  76 S7        30.08F
BROOMFIELD     FAIR      43  36  75 CALM      30.10S
FORT COLLINS   FAIR      37  35  92 N5        30.10S
LONGMONT       FAIR      42  38  83 CALM      30.11S
$$

COZ041-046-047-076>085-087-088-231100-
...PIKES PEAK/PALMER DIVIDE AND SOUTHERN FOOTHILLS...

CITY           SKY/WX    TMP DP  RH WIND       PRES   REMARKS
COLO. SPRINGS  MOCLDY    40  34  79 SE5       30.16F
A. F. ACADEMY  FAIR      36  33  90 CALM      30.15F
SCHRIEVER AFB  NOT AVBL
CHEYENNE MTN   FAIR      37  35  90 CALM      30.10F
ELLICOTT         N/A    N/A N/A N/A CALM      30.16S
FALCON         MOCLDY    35  33  92 SW6       30.16F WCI  30
FORT CARSON    FAIR      37  34  90 CALM      30.14F
LIMON          FAIR      32  31  96 S5        30.15F WCI  27
MONUMENT HILL  FAIR      36  32  87 S7        30.15F
CANON CITY     FAIR      43  37  81 CALM      30.15S
WALSENBURG     NOT AVBL
TRINIDAD       FAIR      40  33  76 NW9       30.14F
$$

COZ042>045-048>051-090-091-231100-
...NORTHEAST COLORADO...

CITY           SKY/WX    TMP DP  RH WIND       PRES   REMARKS
GREELEY ARPT   FAIR      36  35  96 N8        30.09F
AKRON          FAIR      38  34  85 S13       30.11F
BURLINGTON     FAIR      35  33  92 S9        30.15F WCI  28
WRAY           FAIR      36  32  87 SW5       30.15S
YUMA           FAIR      32  30  93 S6        30.13S WCI  26
STERLING       NOT AVBL
HOLYOKE        FAIR      34  32  93 S5        30.15S WCI  30
FORT MORGAN    FAIR      34  32  93 E5        30.10S WCI  30
$$

COZ086-089-092>099-231100-
...SOUTHEAST COLORADO...

CITY           SKY/WX    TMP DP  RH WIND       PRES   REMARKS
PUEBLO         FAIR      39  33  79 N6        30.14F
LA JUNTA       FAIR      37  34  89 E3        30.13F
LAMAR          FAIR      36  32  85 CALM      30.14S
SPRINGFIELD      N/A     32  31  96 SW8       30.16S WCI  25
$$




USA.gov is the U.S. government's official web portal to all federal, state and local government web resources and services.